Wind_Speed
51 51 51 50 51 51 50 50 50 50 50 52 53 54 56 56 56 56 56 57 57 57 58 58 58 58 57 58 58 57 57 56 55 55 55 54 54 54
52 52 52 52 52 52 52 52 52 52 51 52 54 54 55 56 57 57 57 57 58 58 58 59 59 59 59 59 59 59 59 58 57 57 57 57 56 56
53 53 53 53 54 54 54 54 55 55 54 54 55 55 56 56 56 57 57 57 58 59 59 60 60 61 61 61 61 61 61 60 59 59 58 58 58 58
54 54 54 55 55 55 56 56 56 55 55 54 55 56 56 56 57 57 57 58 58 59 60 61 61 61 62 62 63 63 63 62 61 60 59 60 59 59
54 55 55 56 56 56 56 56 55 56 56 55 55 56 57 57 57 58 58 58 58 59 60 60 61 62 62 62 63 63 63 63 63 63 62 62 61 61
55 55 55 55 56 56 56 56 56 57 57 57 56 57 57 57 57 58 58 59 59 60 60 60 61 61 61 61 62 62 63 64 64 64 64 63 62 62
55 55 55 55 55 56 56 57 57 58 58 58 58 58 58 59 58 58 60 60 60 60 60 61 61 61 62 62 62 63 64 64 65 65 65 65 64 64
56 56 55 55 55 55 56 57 58 59 58 59 59 59 59 60 61 61 61 61 61 61 62 62 62 62 62 63 63 64 64 65 66 66 65 65 65 65
56 56 56 56 56 56 57 57 57 58 58 58 59 59 59 59 61 61 62 61 61 61 62 61 62 62 62 63 63 64 65 66 66 66 65 65 65 66
56 56 56 57 57 57 57 56 56 57 58 58 57 57 57 58 59 61 62 61 61 61 62 62 62 63 63 63 64 64 64 65 65 66 65 65 65 65
54 55 56 55 56 57 56 56 56 56 57 57 56 57 57 57 58 59 60 60 61 62 62 62 62 62 62 62 62 62 63 63 64 65 65 65 65 65
53 53 54 54 55 56 56 55 55 56 56 56 56 56 56 57 57 57 58 59 59 60 61 62 61 61 60 59 59 60 62 63 63 64 64 64 64 64
51 52 53 54 54 54 54 54 55 55 55 55 55 55 56 56 57 57 57 58 58 58 59 60 60 60 60 58 58 60 61 62 63 63 64 64 63 63
52 53 53 53 53 53 53 53 53 53 53 53 53 53 53 53 53 54 56 56 56 56 56 57 57 58 58 58 57 58 60 61 61 62 63 62 62 62
51 51 51 51 51 51 51 51 51 51 52 52 52 52 51 52 52 52 52 52 53 53 53 55 55 56 57 57 57 57 58 58 60 60 61 62 62 61
49 49 50 50 50 50 50 50 50 50 50 51 51 50 50 50 50 50 50 50 51 52 53 54 55 56 56 56 57 57 58 58 59 59 60 61 61 60
47 48 48 48 49 49 49 49 49 49 49 49 49 49 49 48 48 48 49 49 49 50 52 53 54 55 56 56 56 56 56 57 58 59 59 59 59 59
45 46 47 47 48 48 48 48 48 48 48 48 47 48 48 47 47 48 48 48 49 49 50 51 52 52 53 53 54 54 54 55 56 56 57 57 57 57
44 45 45 46 46 46 47 47 47 47 47 46 46 46 47 47 47 47 47 48 48 48 49 49 50 50 51 50 50 51 52 53 54 54 54 54 54 54
43 44 44 44 45 45 45 46 46 46 46 46 45 46 46 46 46 47 47 47 47 47 46 47 47 48 48 48 48 48 49 50 51 51 51 51 50 51
42 42 42 42 43 44 44 45 45 46 46 46 46 45 45 45 45 46 46 46 45 44 43 44 45 46 46 46 46 45 45 45 46 46 47 47 47 46
40 40 40 41 42 42 43 43 44 44 45 45 46 46 45 45 45 44 44 44 44 43 43 43 43 43 43 43 43 42 42 42 42 42 43 44 44 43
38 39 39 39 40 40 41 41 42 43 44 44 45 45 45 44 44 44 43 43 43 43 42 41 41 41 41 41 41 40 40 40 40 40 39 40 40 40
Wind_Direction
263 263 264 264 264 264 264 263 262 261 260 260 261 262 262 262 261 261 261 261 260 259 258 258 258 258 257 256 256 257 257 258 259 259 259 259 260 260
263 264 264 265 265 265 265 265 263 263 262 262 262 262 263 263 262 261 261 261 260 259 258 257 257 258 258 257 257 257 257 258 258 259 259 259 260 260
264 264 264 265 265 265 265 265 265 264 264 263 263 263 263 262 262 262 261 261 261 260 259 258 257 258 258 258 257 257 257 258 258 259 259 259 260 260
264 265 265 264 265 265 265 266 265 265 264 264 264 263 263 263 262 262 262 262 262 261 261 260 259 259 259 258 258 258 258 258 258 258 259 259 260 261
265 265 265 265 265 265 265 266 265 264 264 264 264 264 264 264 264 263 263 263 262 262 262 260 259 259 259 259 258 258 258 258 258 258 259 259 260 261
265 266 266 266 265 265 266 266 265 264 264 264 265 264 264 263 264 263 263 263 263 263 263 261 260 259 259 259 259 259 259 259 258 259 259 260 261 261
265 266 266 266 266 266 266 265 265 265 264 265 264 265 264 264 264 264 263 263 263 263 263 262 261 260 260 260 260 260 260 260 259 259 260 260 261 261
265 266 266 266 266 266 267 266 266 266 265 265 265 265 266 265 265 265 264 263 263 263 263 263 262 261 261 261 261 260 260 260 260 260 260 260 260 260
266 265 266 266 266 267 267 267 267 267 266 266 266 266 266 266 266 266 265 265 264 263 263 262 262 261 261 261 261 261 260 260 260 260 260 260 260 261
266 266 265 266 266 267 267 268 268 268 267 266 267 267 266 266 267 266 266 265 265 264 264 263 262 262 261 261 262 261 261 261 260 260 261 261 261 261
266 266 265 265 266 267 267 268 268 268 268 267 267 266 266 267 267 267 266 266 265 264 264 263 262 262 261 261 261 261 260 260 260 260 261 262 262 261
266 266 265 265 266 267 267 267 267 268 268 267 267 267 267 267 267 268 267 266 265 265 264 264 263 262 260 260 260 260 260 260 260 260 261 262 262 262
266 267 267 266 266 267 268 268 267 267 267 267 267 267 266 266 267 267 267 266 266 266 265 264 264 263 262 261 260 260 260 260 260 260 260 261 262 262
267 267 267 267 267 267 267 268 267 267 267 266 266 266 266 267 267 267 267 266 266 266 265 264 264 264 263 262 262 261 260 260 260 260 260 260 261 262
268 267 267 266 266 266 267 267 267 267 267 267 267 266 267 267 267 267 266 266 266 266 265 265 264 264 264 265 264 263 261 260 261 260 260 260 260 261
268 267 267 267 267 267 267 267 267 267 268 268 268 267 268 268 268 267 266 267 267 266 266 265 265 265 265 266 266 265 263 261 261 260 261 260 260 261
268 268 268 267 268 268 267 267 267 267 268 269 268 268 267 267 267 267 267 267 267 266 265 266 266 266 265 265 266 266 264 262 261 261 261 260 260 261
270 269 268 268 268 268 268 268 268 269 269 269 268 268 268 268 267 267 268 268 268 267 266 266 266 265 265 265 265 265 264 263 262 262 262 261 261 261
271 270 269 268 268 267 267 267 267 268 268 268 268 268 269 268 268 268 268 268 268 267 267 267 266 265 265 264 265 265 265 264 263 262 262 262 261 260
272 271 269 268 268 267 267 267 267 267 267 267 267 268 268 268 268 268 267 267 267 267 267 266 266 266 266 265 265 264 264 265 264 263 261 261 260 259
273 271 269 268 267 267 267 267 267 267 266 266 267 268 269 268 268 268 267 267 267 267 267 266 266 267 266 266 266 265 264 264 263 262 260 259 258 258
274 271 270 269 268 267 267 266 267 267 267 267 267 267 268 268 268 268 268 267 267 266 266 266 265 266 266 266 266 265 264 264 262 261 259 258 257 256
274 271 270 269 269 268 268 268 267 268 268 268 268 267 267 267 267 268 268 267 267 266 266 266 265 265 265 265 265 265 265 263 261 259 257 257 257 256
Height
5642 5643 5644 5645 5645 5646 5646 5647 5649 5651 5654 5654 5654 5655 5656 5657 5658 5659 5661 5662 5664 5666 5668 5670 5672 5674 5676 5678 5681 5683 5686 5688 5690 5692 5695 5696 5698 5700
5628 5629 5630 5631 5631 5631 5632 5633 5634 5636 5639 5641 5640 5640 5640 5641 5642 5643 5645 5646 5648 5649 5651 5653 5655 5657 5659 5662 5664 5667 5669 5672 5674 5677 5679 5680 5682 5684
5613 5614 5615 5616 5616 5617 5617 5618 5619 5620 5623 5625 5625 5625 5625 5626 5626 5627 5629 5630 5631 5633 5634 5636 5638 5640 5642 5645 5647 5650 5652 5655 5657 5660 5661 5664 5665 5668
5599 5599 5600 5601 5601 5602 5602 5603 5604 5604 5606 5609 5609 5609 5610 5610 5610 5611 5612 5614 5615 5616 5617 5619 5621 5622 5625 5627 5630 5632 5635 5637 5640 5642 5645 5647 5649 5650
5584 5584 5585 5585 5586 5586 5587 5587 5588 5588 5589 5591 5593 5593 5593 5593 5594 5595 5596 5597 5598 5599 5600 5601 5603 5604 5606 5609 5611 5614 5617 5620 5622 5624 5626 5629 5631 5633
5568 5569 5569 5569 5570 5570 5570 5571 5571 5572 5573 5574 5576 5576 5577 5576 5577 5578 5579 5580 5581 5581 5582 5583 5585 5586 5588 5591 5594 5596 5598 5600 5602 5605 5608 5610 5612 5615
5553 5553 5553 5553 5553 5554 5554 5555 5555 5555 5555 5556 5558 5559 5560 5560 5560 5561 5562 5563 5564 5564 5565 5566 5567 5570 5570 5572 5574 5576 5578 5581 5584 5586 5589 5591 5594 5596
5537 5537 5537 5537 5537 5537 5537 5538 5538 5538 5539 5539 5540 5541 5543 5542 5542 5543 5543 5545 5547 5549 5547 5549 5549 5551 5552 5554 5556 5557 5559 5561 5564 5567 5569 5572 5574 5577
5520 5520 5521 5521 5520 5521 5521 5521 5521 5521 5521 5523 5523 5524 5525 5525 5524 5525 5525 5525 5528 5528 5527 5530 5531 5532 5534 5535 5536 5538 5540 5543 5545 5547 5550 5552 5554 5557
5504 5504 5504 5504 5504 5504 5504 5504 5504 5504 5505 5505 5507 5507 5506 5506 5505 5506 5506 5507 5508 5508 5508 5511 5513 5513 5516 5516 5517 5519 5521 5523 5526 5528 5530 5532 5534 5537
5487 5488 5488 5488 5488 5488 5488 5489 5489 5488 5487 5488 5489 5489 5489 5488 5487 5487 5487 5487 5489 5491 5489 5490 5493 5494 5497 5498 5499 5500 5502 5504 5506 5509 5511 5513 5515 5516
5472 5471 5471 5472 5471 5471 5471 5472 5472 5472 5472 5472 5472 5472 5472 5471 5470 5469 5469 5469 5470 5472 5472 5472 5473 5474 5477 5481 5481 5482 5483 5485 5487 5490 5492 5493 5495 5496
5455 5455 5455 5455 5455 5455 5455 5455 5456 5455 5455 5456 5456 5456 5455 5454 5453 5452 5452 5451 5452 5454 5455 5454 5455 5455 5457 5462 5465 5465 5465 5467 5468 5470 5472 5474 5476 5477
5440 5439 5439 5439 5439 5439 5439 5439 5439 5439 5439 5439 5440 5439 5439 5438 5437 5436 5436 5435 5435 5436 5436 5436 5437 5438 5439 5442 5446 5448 5448 5448 5450 5452 5453 5455 5457 5458
5424 5423 5423 5423 5423 5423 5423 5423 5423 5423 5423 5423 5424 5424 5423 5422 5421 5420 5420 5419 5419 5419 5420 5420 5420 5421 5422 5424 5426 5429 5430 5431 5432 5433 5435 5437 5438 5440
5408 5408 5408 5407 5407 5408 5408 5408 5407 5408 5408 5408 5408 5408 5407 5406 5406 5405 5404 5404 5404 5405 5404 5403 5403 5404 5405 5406 5408 5410 5411 5413 5415 5415 5416 5418 5420 5422
5392 5392 5392 5392 5392 5393 5393 5393 5393 5392 5392 5392 5392 5392 5392 5391 5390 5390 5389 5388 5389 5389 5389 5389 5388 5388 5388 5389 5391 5392 5393 5395 5396 5397 5398 5400 5403 5404
5377 5377 5378 5377 5377 5378 5378 5378 5378 5377 5377 5377 5377 5377 5377 5376 5376 5375 5374 5374 5374 5374 5374 5373 5373 5373 5373 5374 5374 5375 5376 5377 5378 5379 5380 5382 5386 5388
5363 5363 5363 5363 5363 5363 5363 5363 5363 5363 5363 5363 5363 5362 5362 5361 5361 5360 5360 5359 5359 5359 5358 5358 5357 5357 5358 5360 5361 5358 5359 5360 5361 5362 5364 5365 5368 5370
5349 5348 5348 5348 5348 5349 5349 5349 5349 5349 5348 5348 5348 5348 5348 5347 5346 5346 5345 5345 5344 5344 5344 5344 5343 5342 5343 5344 5345 5346 5344 5343 5344 5346 5348 5349 5351 5354
5335 5334 5334 5334 5334 5334 5334 5335 5335 5335 5334 5334 5334 5334 5333 5333 5333 5332 5331 5330 5330 5330 5330 5330 5329 5328 5328 5329 5330 5331 5331 5330 5330 5331 5332 5334 5337 5340
5321 5320 5320 5320 5320 5320 5320 5320 5320 5320 5320 5320 5320 5320 5319 5319 5318 5318 5317 5317 5316 5316 5316 5317 5316 5316 5315 5316 5317 5318 5318 5318 5317 5318 5319 5321 5323 5327
5309 5308 5307 5307 5306 5306 5306 5306 5306 5306 5306 5306 5306 5305 5305 5305 5304 5304 5304 5304 5303 5303 5303 5303 5303 5303 5303 5303 5304 5304 5305 5305 5306 5307 5308 5309 5311 5313